TimeMDT,TemperatureF,Dew PointF,Humidity,Sea Level PressureIn,VisibilityMPH,Wind Direction,Wind SpeedMPH,Gust SpeedMPH,PrecipitationIn,Events,Conditions,WindDirDegrees,DateUTC
12:55 AM,71.6,44.6,38,29.74,25.0,South,15.0,-,N/A,,Partly Cloudy,190,2013-07-22 06:55:00
1:55 AM,71.6,44.6,38,29.73,25.0,South,15.0,-,N/A,,Partly Cloudy,190,2013-07-22 07:55:00
2:55 AM,71.6,41.0,33,29.73,25.0,SSW,10.4,-,N/A,,Partly Cloudy,210,2013-07-22 08:55:00
3:55 AM,68.0,42.8,40,29.74,25.0,SSW,8.1,-,N/A,,Clear,200,2013-07-22 09:55:00
4:55 AM,68.0,41.0,37,29.76,25.0,WNW,6.9,-,N/A,,Partly Cloudy,300,2013-07-22 10:55:00
5:55 AM,62.6,48.2,59,29.80,25.0,WNW,4.6,-,N/A,,Mostly Cloudy,290,2013-07-22 11:55:00
6:55 AM,64.4,46.4,52,29.81,25.0,SW,3.5,-,N/A,,Mostly Cloudy,220,2013-07-22 12:55:00
7:55 AM,68.0,51.8,56,29.83,10.0,SW,2.3,-,N/A,,Mostly Cloudy,230,2013-07-22 13:55:00
8:55 AM,73.4,55.4,53,29.86,25.0,North,3.5,-,N/A,,Mostly Cloudy,10,2013-07-22 14:55:00
9:55 AM,75.2,55.4,50,29.85,25.0,North,3.5,-,N/A,,Scattered Clouds,10,2013-07-22 15:55:00
10:55 AM,80.6,53.6,39,29.84,25.0,NNE,5.8,-,N/A,,Scattered Clouds,20,2013-07-22 16:55:00
11:55 AM,84.2,50.0,30,29.83,25.0,NNE,13.8,-,N/A,,Scattered Clouds,30,2013-07-22 17:55:00
12:55 PM,89.6,44.6,21,29.80,25.0,North,10.4,-,N/A,,Scattered Clouds,10,2013-07-22 18:55:00
1:55 PM,93.2,39.2,15,29.77,25.0,ENE,10.4,-,N/A,,Scattered Clouds,70,2013-07-22 19:55:00
2:55 PM,95.0,32.0,11,29.76,25.0,ENE,6.9,-,N/A,,Scattered Clouds,60,2013-07-22 20:55:00
3:55 PM,95.0,32.0,11,29.76,25.0,NNE,15.0,20.7,N/A,,Scattered Clouds,20,2013-07-22 21:55:00
4:55 PM,95.0,37.4,13,29.76,25.0,East,15.0,20.7,N/A,,Scattered Clouds,80,2013-07-22 22:55:00
5:55 PM,91.4,44.6,20,29.78,25.0,East,6.9,-,N/A,,Scattered Clouds,80,2013-07-22 23:55:00
6:55 PM,87.8,50.0,27,29.79,25.0,East,10.4,-,N/A,,Scattered Clouds,90,2013-07-23 00:55:00
7:55 PM,84.2,50.0,30,29.79,25.0,East,9.2,-,N/A,,Scattered Clouds,90,2013-07-23 01:55:00
8:55 PM,78.8,44.6,30,29.80,25.0,SE,10.4,-,N/A,,Partly Cloudy,130,2013-07-23 02:55:00
9:55 PM,77.0,42.8,29,29.81,25.0,SE,9.2,-,N/A,,Partly Cloudy,140,2013-07-23 03:55:00
10:55 PM,73.4,41.0,31,29.80,25.0,South,12.7,-,N/A,,Partly Cloudy,190,2013-07-23 04:55:00
11:55 PM,73.4,39.2,29,29.78,25.0,SSW,12.7,-,N/A,,Partly Cloudy,200,2013-07-23 05:55:00